SCP
-0 -0 -0 -0 -0 -0 -0 0 0 0 -0 -0 0 0 0 0 0 0 0 -0 -0 -0 0 0 0 0 0 0 0 0 -0 0 -0 -0 -0 0 0 0 0 0 -0 0 0 0
-0 -0 -0 -0 -0 -0 -0 0 -0 0 -0 -0 0 0 0 -0 -0 0 0 -0 0 -0 -0 0 -0 -0 0 0 0 0 0 0 0 -0 0 0 0 0 -0 0 0 0 0 0
-0 -0 -0 -0 -0 0 0 0 -0 0 0 -0 -0 0 0 0 0 -0 0 0 0 0 0 0 0 -0 0 0 0 0 0 0 0 0 -0 0 0 0 -0 -0 0 0 0 0
-0 -0 -0 -0 -0 -0 0 0 0 0 0 0 0 0 0 -0 0 0 0 0 0 0 0 -0 0 0 -0 0 0 0 0 0 0 0 0 0 -0 -0 0 -0 -0 0 0 0
0 -0 -0 -0 -0 -0 0 0 0 0 0 0 0 0 0 0 0 0 -0 0 0 0 0 0 0 -0 -0 0 -0 0 -0 -0 -0 -0 0 0 -0 -0 0 0 0 -0 0 0
0 0 0 -0 -0 -0 0 0 0 0 0 0 0 0 0 0 0 0 0 0 0 0 0 0 0 0 0 0 0 0 0 -0 -0 -0 0 0 -0 0 -0 -0 -0 0 0 -0
0 0 0 0 -0 0 0 0 0 0 0 0 0 0 0 0 0 0 0 0 0 0 0 0 0 0 -0 -0 -0 0 -0 0 -0 -0 -0 0 -0 0 0 0 -0 0 0 0
0 0 0 0 0 0 0 0 0 0 0 0 0 0 0 0 0 0 0 0 0 0 0 0 0 0 0 -0 0 0 0 0 0 0 0 0 -0 -0 0 0 0 0 0 0
0 0 0 0 0 0 0 0 0 0 0 0 0 0 0 0 0 0 0 0 0 0 0 0 0 0 0 0 0 0 0 0 0 0 0 -0 -0 0 0 0 0 0 1 -0
0 0 0 0 0 0 0 0 0 0 0 0 0 0 0 0 0 0 0 0 0 0 0 0 0 0 -0 0 0 0 0 0 0 0 0 0 0 0 0 0 0 0 1 1
0 0 0 0 0 0 0 0 0 0 0 0 0 0 0 0 0 0 0 0 0 0 0 0 0 0 0 0 0 0 0 0 0 0 0 0 0 0 0 0 0 1 1 1
0 0 0 0 0 0 0 0 0 0 0 0 0 0 0 0 0 0 0 0 0 0 0 0 0 0 0 0 0 0 0 0 0 0 0 0 0 0 0 0 0 0 0 1
0 0 0 0 0 0 0 0 0 0 0 0 0 0 0 0 0 0 0 0 0 0 0 0 0 0 0 0 0 0 0 0 0 0 0 0 0 0 0 0 0 0 0 0
0 0 0 0 0 0 0 0 0 0 0 0 0 0 0 0 0 0 0 0 0 0 0 0 0 0 0 0 0 0 0 0 0 0 0 0 0 0 0 0 0 0 0 0
0 0 0 0 0 0 0 0 0 0 0 0 0 0 0 0 0 0 0 0 0 0 0 0 0 0 0 0 0 0 0 0 0 0 0 0 0 0 0 0 0 0 0 0
0 0 0 0 0 0 0 0 0 0 0 0 0 0 0 0 0 0 0 0 0 0 0 0 0 0 0 0 0 0 0 0 0 0 0 0 0 0 0 0 0 0 0 0
0 0 0 0 0 0 0 0 0 0 0 0 0 0 0 0 0 0 0 0 0 0 0 0 0 0 0 0 0 0 0 0 0 0 0 0 0 0 0 0 0 0 0 0
0 0 0 0 0 0 0 0 0 0 0 0 0 0 0 0 0 0 0 0 0 0 0 0 0 0 0 0 0 0 0 0 0 0 0 0 0 0 0 0 0 0 0 0
0 0 0 0 0 0 0 0 0 0 0 0 0 0 0 0 0 0 0 0 0 0 0 0 0 0 0 0 0 0 0 0 0 0 0 0 0 0 0 0 0 0 0 0
0 0 0 0 0 0 0 0 0 0 0 0 0 0 0 0 0 0 0 0 0 0 0 0 0 0 0 0 0 0 0 0 0 0 0 0 0 0 0 0 0 0 0 0
0 0 0 0 0 0 0 0 0 0 0 0 0 0 0 0 0 0 0 0 0 0 0 0 0 0 0 0 0 0 0 0 0 0 0 0 0 0 0 0 0 0 0 0
0 0 0 0 0 0 0 0 0 0 0 0 0 0 0 0 0 0 0 0 0 0 0 0 0 0 0 0 0 0 0 0 0 0 0 0 0 0 0 0 0 0 0 1
0 0 0 0 0 0 0 0 0 0 0 0 0 0 0 0 0 0 0 0 0 0 0 0 0 0 0 0 0 0 0 0 0 0 0 0 0 0 0 0 0 0 0 0
0 0 0 0 0 0 0 0 0 0 0 0 0 0 0 0 0 0 0 0 0 0 0 0 0 0 0 0 0 0 0 0 0 0 0 0 0 0 0 0 0 0 0 0
0 0 0 0 0 0 0 -0 0 0 0 0 0 0 0 0 0 0 0 0 0 0 0 0 0 0 0 0 0 0 0 0 0 0 0 0 0 0 0 0 -0 0 -0 0
0 0 0 0 0 0 0 0 0 0 0 0 0 0 0 0 0 0 0 0 0 0 0 0 0 0 0 0 0 0 0 0 0 0 0 0 0 0 -0 -0 0 0 -0 0
0 0 0 0 0 0 0 0 0 0 0 0 0 0 0 0 0 0 0 0 0 0 0 -0 0 0 0 0 0 0 0 0 0 0 -0 -0 -0 -0 -0 -0 -0 0 0 0
Wind_Speed_500mb
48 50 52 49 37 21 20 24 11 5 7 25 16 10 14 5 8 4 11 10 16 18 15 19 17 9 16 14 23 25 29 18 21 35 29 22 32 32 33 22 33 29 29 31
44 47 49 48 40 32 29 19 11 1 11 14 5 11 9 13 14 4 7 8 3 16 17 9 20 16 12 7 18 22 24 17 20 22 12 37 23 29 38 37 33 29 25 25
42 44 44 43 35 30 22 16 8 10 7 11 20 5 7 7 10 19 11 19 14 18 16 15 8 22 9 11 7 12 10 26 32 27 42 27 20 33 36 38 20 27 28 30
41 43 43 39 29 23 21 9 13 14 12 15 24 18 20 18 9 9 5 12 11 14 17 25 24 22 18 12 21 9 17 25 30 33 35 36 39 34 41 40 36 32 37 37
39 41 44 43 30 20 13 17 14 26 31 21 12 9 18 11 15 8 20 4 20 16 17 23 27 31 28 27 25 26 27 26 26 30 35 37 36 35 38 42 46 46 40 41
38 39 41 43 42 22 16 27 14 19 23 22 15 10 22 14 17 21 17 20 20 20 22 29 35 41 46 39 35 32 32 25 24 30 34 34 30 33 33 37 35 43 35 41
34 36 36 38 38 34 28 26 21 21 19 10 13 18 21 17 19 20 31 26 20 28 31 37 40 45 51 49 41 42 33 29 23 25 29 34 33 28 30 37 39 28 32 27
32 33 33 32 31 30 23 29 20 17 15 34 20 13 17 24 25 27 29 28 18 22 27 24 24 26 36 39 36 35 30 27 24 24 27 35 40 29 25 25 22 30 31 38
32 31 30 30 28 26 13 16 22 13 19 17 18 22 24 20 20 24 27 10 6 16 18 17 22 21 24 14 16 17 15 23 21 23 30 35 35 38 30 15 24 27 34 26
29 32 30 29 27 25 24 9 26 15 25 15 19 20 21 24 21 16 29 18 8 19 14 20 23 26 29 25 30 21 19 17 22 23 28 29 24 31 33 15 9 20 23 28
30 29 32 28 26 25 20 6 24 21 17 39 23 18 21 25 26 17 26 22 18 12 18 19 23 23 24 20 23 21 21 23 23 25 30 35 26 22 20 15 18 23 19 14
32 30 27 29 25 23 22 13 21 24 20 32 46 43 36 35 36 33 29 35 29 13 13 16 13 26 27 30 25 25 23 24 23 27 27 34 32 36 37 47 34 20 24 7
36 35 31 27 27 22 22 22 19 33 25 48 35 27 21 10 17 24 29 30 22 22 22 22 13 20 20 22 21 32 33 41 24 27 31 39 50 46 41 43 43 36 29 13
42 40 34 29 30 27 24 21 19 21 23 15 5 2 18 26 24 26 33 39 41 36 35 31 17 24 26 24 30 28 30 35 30 34 34 47 51 45 34 26 33 33 35 21
50 43 37 34 31 30 29 29 12 15 11 15 36 56 40 14 31 27 27 30 31 32 34 24 23 39 31 33 30 30 42 35 25 28 42 46 44 49 47 45 39 41 41 42
45 43 41 38 36 31 25 4 5 4 10 15 11 29 37 32 20 22 26 31 33 36 37 28 34 49 42 20 26 36 44 45 48 41 48 55 55 52 48 48 48 48 53 53
53 46 43 45 42 36 23 10 10 20 15 8 15 17 2 14 17 26 30 33 37 38 41 43 48 48 46 28 38 43 61 66 66 66 66 61 60 59 58 59 59 56 57 54
48 45 41 38 41 43 41 42 45 41 22 10 7 11 33 15 20 28 29 33 35 40 44 36 35 38 38 22 39 48 53 54 50 54 47 43 40 39 39 41 42 46 48 50
21 19 23 24 25 19 25 38 37 29 19 7 10 11 21 13 20 28 25 32 21 38 24 33 27 24 18 22 25 33 46 52 49 47 33 35 38 38 38 40 44 46 46 42
15 16 12 9 11 20 14 4 6 16 13 14 17 36 30 47 51 43 35 26 16 17 22 35 26 31 68 74 75 72 68 62 59 47 33 32 27 27 31 39 41 44 45 46
30 13 12 12 8 11 5 3 6 8 9 19 23 43 34 45 29 17 12 10 8 14 16 26 27 30 33 53 42 37 44 43 46 29 16 12 13 20 27 38 45 51 58 46
20 13 14 16 10 7 7 6 7 12 11 24 26 26 20 16 4 8 10 11 7 15 16 16 13 20 21 27 29 15 4 6 17 16 4 5 3 8 20 30 40 47 54 46
21 12 10 11 11 8 11 14 11 10 16 13 17 11 7 9 5 10 6 9 14 24 11 17 18 22 30 24 17 16 6 10 22 18 13 14 16 18 14 37 45 49 52 49
13 13 10 13 12 13 17 22 19 22 14 12 21 10 12 10 5 7 8 12 8 10 18 32 14 39 30 11 19 17 24 35 47 34 22 16 19 32 28 33 46 55 61 48
16 14 11 19 31 30 26 39 35 26 23 17 13 14 16 6 5 7 10 9 12 10 13 16 33 33 16 11 17 22 31 35 46 57 70 61 60 57 54 55 57 65 65 57
12 16 11 21 24 29 38 30 35 32 18 8 9 5 6 11 8 12 16 10 15 13 14 45 36 36 25 26 30 44 54 59 62 53 47 51 61 63 65 58 60 65 53 52
12 15 38 40 36 27 4 12 12 27 28 10 8 12 13 7 10 15 17 30 26 42 37 51 32 23 52 67 87 109 101 100 101 89 82 80 74 72 55 54 53 48 50 51
Wind_Direction_500mb
5 5 5 2 360 348 327 300 276 108 259 270 246 41 12 7 17 162 317 280 325 328 354 311 326 347 58 56 344 312 338 321 300 299 308 271 233 259 271 248 239 261 278 289
4 4 5 5 3 359 342 299 335 83 275 286 259 92 170 305 338 8 340 324 300 1 308 338 286 299 47 33 317 20 349 309 319 296 29 348 354 347 332 283 294 287 282 273
2 3 3 4 2 0 345 294 295 155 243 310 303 6 271 253 135 296 323 329 318 286 285 267 257 294 286 151 274 90 308 277 280 285 307 319 317 304 305 315 289 288 281 294
360 1 3 4 7 12 5 293 18 356 305 37 344 335 335 301 287 160 303 299 242 334 327 314 307 325 314 331 127 274 269 273 277 295 309 308 301 293 287 288 294 296 299 305
360 2 4 7 12 35 20 354 350 342 302 298 273 235 287 306 327 9 293 301 312 7 313 311 315 322 313 305 310 302 278 282 297 292 283 271 270 269 272 282 285 284 280 281
359 3 8 11 15 30 31 355 330 298 296 287 292 12 7 351 355 300 272 330 326 306 338 337 309 297 289 284 282 279 286 287 291 287 294 297 287 281 275 282 258 263 275 279
355 1 7 14 20 28 36 349 334 296 296 290 306 357 327 306 311 304 303 312 294 298 313 308 292 275 263 256 255 258 262 263 269 273 280 274 277 288 308 303 296 287 295 340
349 354 1 6 15 22 35 2 9 332 305 317 317 315 339 306 287 258 257 268 289 307 298 294 294 301 276 239 238 230 232 252 261 268 268 276 271 268 282 342 326 330 340 44
349 346 350 356 0 7 26 358 0 328 304 35 347 318 301 285 293 296 274 210 296 284 293 286 276 276 298 304 319 252 238 233 238 248 265 277 297 309 329 347 295 15 38 72
336 348 345 346 352 1 8 12 348 337 301 282 351 320 320 314 322 301 300 322 280 285 270 272 269 278 291 283 282 259 274 236 255 274 265 263 267 286 312 276 343 2 32 39
315 328 342 341 342 348 11 345 341 2 306 292 302 311 295 297 289 280 305 323 266 259 264 265 275 276 280 294 275 291 269 275 275 271 261 267 14 334 311 356 337 351 359 38
301 308 319 339 336 337 341 332 320 321 289 266 295 286 275 263 261 278 282 284 301 305 321 319 331 314 306 300 283 277 263 257 272 279 285 302 315 325 331 335 331 302 311 320
288 294 302 316 337 331 330 328 345 325 304 301 276 262 214 255 264 238 262 266 299 302 306 320 298 276 291 281 285 303 301 302 298 295 286 288 296 304 311 308 312 314 295 328
273 281 288 296 308 328 325 315 306 319 301 282 32 303 278 293 265 248 251 260 272 277 275 271 272 274 290 284 294 295 292 306 297 294 294 296 290 285 293 318 324 318 336 292
265 268 275 281 286 300 315 314 296 291 299 312 302 300 292 293 236 257 253 254 263 269 265 251 254 263 275 276 277 267 271 273 273 280 297 298 298 299 301 299 296 297 299 301
261 262 265 272 276 286 309 286 196 193 320 308 304 303 282 272 256 256 256 255 258 251 257 261 263 265 262 268 268 276 276 278 286 294 303 300 301 297 281 283 286 286 289 288
258 259 262 263 263 262 244 245 222 222 317 282 298 292 266 217 248 267 264 258 252 251 264 257 260 262 266 272 270 271 275 280 284 284 284 281 282 285 287 291 285 284 279 281
254 260 258 264 268 259 254 256 254 265 284 228 268 271 284 202 261 276 275 254 252 245 249 261 265 271 264 261 260 275 275 274 280 279 271 278 284 285 285 286 288 288 286 288
237 248 250 255 260 253 246 250 254 247 214 219 252 264 290 236 268 289 280 280 268 264 257 254 251 242 236 253 251 290 299 295 287 276 279 289 290 287 288 287 285 283 281 287
204 213 210 225 214 231 256 241 208 190 200 223 249 246 253 264 279 282 287 271 256 260 252 269 239 249 253 258 260 264 272 271 268 271 270 286 306 311 314 312 312 300 284 281
184 196 201 208 175 150 187 197 237 184 231 222 242 240 253 257 251 271 259 270 296 282 274 256 261 266 265 266 276 286 280 269 256 250 257 264 275 288 301 301 301 304 312 290
191 196 179 172 187 197 211 196 197 228 234 214 226 241 227 254 182 226 264 274 237 251 274 280 259 269 332 315 306 337 21 225 254 256 205 251 318 334 308 298 298 303 313 316
196 193 171 181 177 196 204 188 214 224 203 237 194 203 211 179 226 248 264 255 247 287 256 255 265 298 298 254 206 158 88 318 272 253 243 247 281 273 311 305 300 299 306 317
185 188 212 211 185 223 204 210 216 215 241 221 206 184 210 196 175 280 234 237 251 254 256 266 310 330 328 217 199 205 232 244 276 308 302 272 301 288 292 292 303 298 295 299
209 209 230 208 230 230 214 229 254 251 243 201 202 140 233 105 235 221 258 262 248 247 254 283 297 326 309 221 215 269 278 271 277 279 268 275 269 279 297 293 293 293 277 284
232 225 255 243 220 237 245 244 255 247 213 182 87 145 228 217 206 220 232 233 232 265 318 319 22 37 29 2 328 306 293 285 287 263 250 257 273 286 287 282 279 277 268 280
230 221 237 265 294 282 251 307 284 182 180 191 128 215 208 243 242 245 240 249 270 280 328 334 334 330 325 316 305 293 283 276 264 259 266 270 272 277 276 269 270 267 267 270
Wind_Speed_850mb
48 50 52 49 37 21 20 24 11 5 7 25 16 10 14 5 8 4 11 10 16 18 15 19 17 9 16 14 23 25 29 18 21 35 29 22 32 32 33 22 33 29 29 31
44 47 49 48 40 32 29 19 11 1 11 14 5 11 9 13 14 4 7 8 3 16 17 9 20 16 12 7 18 22 24 17 20 22 12 37 23 29 38 37 33 29 25 25
42 44 44 43 35 30 22 16 8 10 7 11 20 5 7 7 10 19 11 19 14 18 16 15 8 22 9 11 7 12 10 26 32 27 42 27 20 33 36 38 20 27 28 30
41 43 43 39 29 23 21 9 13 14 12 15 24 18 20 18 9 9 5 12 11 14 17 25 24 22 18 12 21 9 17 25 30 33 35 36 39 34 41 40 36 32 37 37
39 41 44 43 30 20 13 17 14 26 31 21 12 9 18 11 15 8 20 4 20 16 17 23 27 31 28 27 25 26 27 26 26 30 35 37 36 35 38 42 46 46 40 41
38 39 41 43 42 22 16 27 14 19 23 22 15 10 22 14 17 21 17 20 20 20 22 29 35 41 46 39 35 32 32 25 24 30 34 34 30 33 33 37 35 43 35 41
34 36 36 38 38 34 28 26 21 21 19 10 13 18 21 17 19 20 31 26 20 28 31 37 40 45 51 49 41 42 33 29 23 25 29 34 33 28 30 37 39 28 32 27
32 33 33 32 31 30 23 29 20 17 15 34 20 13 17 24 25 27 29 28 18 22 27 24 24 26 36 39 36 35 30 27 24 24 27 35 40 29 25 25 22 30 31 38
32 31 30 30 28 26 13 16 22 13 19 17 18 22 24 20 20 24 27 10 6 16 18 17 22 21 24 14 16 17 15 23 21 23 30 35 35 38 30 15 24 27 34 26
29 32 30 29 27 25 24 9 26 15 25 15 19 20 21 24 21 16 29 18 8 19 14 20 23 26 29 25 30 21 19 17 22 23 28 29 24 31 33 15 9 20 23 28
30 29 32 28 26 25 20 6 24 21 17 39 23 18 21 25 26 17 26 22 18 12 18 19 23 23 24 20 23 21 21 23 23 25 30 35 26 22 20 15 18 23 19 14
32 30 27 29 25 23 22 13 21 24 20 32 46 43 36 35 36 33 29 35 29 13 13 16 13 26 27 30 25 25 23 24 23 27 27 34 32 36 37 47 34 20 24 7
36 35 31 27 27 22 22 22 19 33 25 48 35 27 21 10 17 24 29 30 22 22 22 22 13 20 20 22 21 32 33 41 24 27 31 39 50 46 41 43 43 36 29 13
42 40 34 29 30 27 24 21 19 21 23 15 5 2 18 26 24 26 33 39 41 36 35 31 17 24 26 24 30 28 30 35 30 34 34 47 51 45 34 26 33 33 35 21
50 43 37 34 31 30 29 29 12 15 11 15 36 56 40 14 31 27 27 30 31 32 34 24 23 39 31 33 30 30 42 35 25 28 42 46 44 49 47 45 39 41 41 42
45 43 41 38 36 31 25 4 5 4 10 15 11 29 37 32 20 22 26 31 33 36 37 28 34 49 42 20 26 36 44 45 48 41 48 55 55 52 48 48 48 48 53 53
53 46 43 45 42 36 23 10 10 20 15 8 15 17 2 14 17 26 30 33 37 38 41 43 48 48 46 28 38 43 61 66 66 66 66 61 60 59 58 59 59 56 57 54
48 45 41 38 41 43 41 42 45 41 22 10 7 11 33 15 20 28 29 33 35 40 44 36 35 38 38 22 39 48 53 54 50 54 47 43 40 39 39 41 42 46 48 50
21 19 23 24 25 19 25 38 37 29 19 7 10 11 21 13 20 28 25 32 21 38 24 33 27 24 18 22 25 33 46 52 49 47 33 35 38 38 38 40 44 46 46 42
15 16 12 9 11 20 14 4 6 16 13 14 17 36 30 47 51 43 35 26 16 17 22 35 26 31 68 74 75 72 68 62 59 47 33 32 27 27 31 39 41 44 45 46
30 13 12 12 8 11 5 3 6 8 9 19 23 43 34 45 29 17 12 10 8 14 16 26 27 30 33 53 42 37 44 43 46 29 16 12 13 20 27 38 45 51 58 46
20 13 14 16 10 7 7 6 7 12 11 24 26 26 20 16 4 8 10 11 7 15 16 16 13 20 21 27 29 15 4 6 17 16 4 5 3 8 20 30 40 47 54 46
21 12 10 11 11 8 11 14 11 10 16 13 17 11 7 9 5 10 6 9 14 24 11 17 18 22 30 24 17 16 6 10 22 18 13 14 16 18 14 37 45 49 52 49
13 13 10 13 12 13 17 22 19 22 14 12 21 10 12 10 5 7 8 12 8 10 18 32 14 39 30 11 19 17 24 35 47 34 22 16 19 32 28 33 46 55 61 48
16 14 11 19 31 30 26 39 35 26 23 17 13 14 16 6 5 7 10 9 12 10 13 16 33 33 16 11 17 22 31 35 46 57 70 61 60 57 54 55 57 65 65 57
12 16 11 21 24 29 38 30 35 32 18 8 9 5 6 11 8 12 16 10 15 13 14 45 36 36 25 26 30 44 54 59 62 53 47 51 61 63 65 58 60 65 53 52
12 15 38 40 36 27 4 12 12 27 28 10 8 12 13 7 10 15 17 30 26 42 37 51 32 23 52 67 87 109 101 100 101 89 82 80 74 72 55 54 53 48 50 51
Wind_Direction_850mb
5 5 5 2 360 348 327 300 276 108 259 270 246 41 12 7 17 162 317 280 325 328 354 311 326 347 58 56 344 312 338 321 300 299 308 271 233 259 271 248 239 261 278 289
4 4 5 5 3 359 342 299 335 83 275 286 259 92 170 305 338 8 340 324 300 1 308 338 286 299 47 33 317 20 349 309 319 296 29 348 354 347 332 283 294 287 282 273
2 3 3 4 2 0 345 294 295 155 243 310 303 6 271 253 135 296 323 329 318 286 285 267 257 294 286 151 274 90 308 277 280 285 307 319 317 304 305 315 289 288 281 294
360 1 3 4 7 12 5 293 18 356 305 37 344 335 335 301 287 160 303 299 242 334 327 314 307 325 314 331 127 274 269 273 277 295 309 308 301 293 287 288 294 296 299 305
360 2 4 7 12 35 20 354 350 342 302 298 273 235 287 306 327 9 293 301 312 7 313 311 315 322 313 305 310 302 278 282 297 292 283 271 270 269 272 282 285 284 280 281
359 3 8 11 15 30 31 355 330 298 296 287 292 12 7 351 355 300 272 330 326 306 338 337 309 297 289 284 282 279 286 287 291 287 294 297 287 281 275 282 258 263 275 279
355 1 7 14 20 28 36 349 334 296 296 290 306 357 327 306 311 304 303 312 294 298 313 308 292 275 263 256 255 258 262 263 269 273 280 274 277 288 308 303 296 287 295 340
349 354 1 6 15 22 35 2 9 332 305 317 317 315 339 306 287 258 257 268 289 307 298 294 294 301 276 239 238 230 232 252 261 268 268 276 271 268 282 342 326 330 340 44
349 346 350 356 0 7 26 358 0 328 304 35 347 318 301 285 293 296 274 210 296 284 293 286 276 276 298 304 319 252 238 233 238 248 265 277 297 309 329 347 295 15 38 72
336 348 345 346 352 1 8 12 348 337 301 282 351 320 320 314 322 301 300 322 280 285 270 272 269 278 291 283 282 259 274 236 255 274 265 263 267 286 312 276 343 2 32 39
315 328 342 341 342 348 11 345 341 2 306 292 302 311 295 297 289 280 305 323 266 259 264 265 275 276 280 294 275 291 269 275 275 271 261 267 14 334 311 356 337 351 359 38
301 308 319 339 336 337 341 332 320 321 289 266 295 286 275 263 261 278 282 284 301 305 321 319 331 314 306 300 283 277 263 257 272 279 285 302 315 325 331 335 331 302 311 320
288 294 302 316 337 331 330 328 345 325 304 301 276 262 214 255 264 238 262 266 299 302 306 320 298 276 291 281 285 303 301 302 298 295 286 288 296 304 311 308 312 314 295 328
273 281 288 296 308 328 325 315 306 319 301 282 32 303 278 293 265 248 251 260 272 277 275 271 272 274 290 284 294 295 292 306 297 294 294 296 290 285 293 318 324 318 336 292
265 268 275 281 286 300 315 314 296 291 299 312 302 300 292 293 236 257 253 254 263 269 265 251 254 263 275 276 277 267 271 273 273 280 297 298 298 299 301 299 296 297 299 301
261 262 265 272 276 286 309 286 196 193 320 308 304 303 282 272 256 256 256 255 258 251 257 261 263 265 262 268 268 276 276 278 286 294 303 300 301 297 281 283 286 286 289 288
258 259 262 263 263 262 244 245 222 222 317 282 298 292 266 217 248 267 264 258 252 251 264 257 260 262 266 272 270 271 275 280 284 284 284 281 282 285 287 291 285 284 279 281
254 260 258 264 268 259 254 256 254 265 284 228 268 271 284 202 261 276 275 254 252 245 249 261 265 271 264 261 260 275 275 274 280 279 271 278 284 285 285 286 288 288 286 288
237 248 250 255 260 253 246 250 254 247 214 219 252 264 290 236 268 289 280 280 268 264 257 254 251 242 236 253 251 290 299 295 287 276 279 289 290 287 288 287 285 283 281 287
204 213 210 225 214 231 256 241 208 190 200 223 249 246 253 264 279 282 287 271 256 260 252 269 239 249 253 258 260 264 272 271 268 271 270 286 306 311 314 312 312 300 284 281
184 196 201 208 175 150 187 197 237 184 231 222 242 240 253 257 251 271 259 270 296 282 274 256 261 266 265 266 276 286 280 269 256 250 257 264 275 288 301 301 301 304 312 290
191 196 179 172 187 197 211 196 197 228 234 214 226 241 227 254 182 226 264 274 237 251 274 280 259 269 332 315 306 337 21 225 254 256 205 251 318 334 308 298 298 303 313 316
196 193 171 181 177 196 204 188 214 224 203 237 194 203 211 179 226 248 264 255 247 287 256 255 265 298 298 254 206 158 88 318 272 253 243 247 281 273 311 305 300 299 306 317
185 188 212 211 185 223 204 210 216 215 241 221 206 184 210 196 175 280 234 237 251 254 256 266 310 330 328 217 199 205 232 244 276 308 302 272 301 288 292 292 303 298 295 299
209 209 230 208 230 230 214 229 254 251 243 201 202 140 233 105 235 221 258 262 248 247 254 283 297 326 309 221 215 269 278 271 277 279 268 275 269 279 297 293 293 293 277 284
232 225 255 243 220 237 245 244 255 247 213 182 87 145 228 217 206 220 232 233 232 265 318 319 22 37 29 2 328 306 293 285 287 263 250 257 273 286 287 282 279 277 268 280
230 221 237 265 294 282 251 307 284 182 180 191 128 215 208 243 242 245 240 249 270 280 328 334 334 330 325 316 305 293 283 276 264 259 266 270 272 277 276 269 270 267 267 270